Weather History for Lowell, ID

Change the Weather History Date:

Sunday, March 31, 2013

  Actual Average Record
Temperature  
Mean Temperature 52 °F -  
Max Temperature 71 °F 54 °F 71 °F (2013)
Min Temperature 34 °F 33 °F 28 °F (1998)
Degree Days  
Heating Degree Days 12    
Growing Degree Days 2 (Base 50)    
Moisture  
Dew Point 38 °F    
Average Humidity 74    
Maximum Humidity 97    
Minimum Humidity 31    
Precipitation  
Precipitation 0.00 in - - ()
Sea Level Pressure  
Sea Level Pressure 30.08 in    
Wind  
Wind Speed 3 mph (NNW)    
Max Wind Speed 6 mph    
Max Gust Speed -    
Averages and records for this station are not official NWS values.
T = Trace of Precipitation, MM = Missing Value Source: NWS Daily Summary

Daily Weather History Graph

Daily Weather History Graph

Search for Another Location

Airport:

Trip Planner

Search our weather history database for the weather conditions in past years. The results will help you decide how hot, cold, wet, or windy it might be!

Date:

Astronomy

Mar. 31, 2013 Rise Set
Actual Time 7:23 AM MDT 8:10 PM MDT
Civil Twilight 6:53 AM MDT 8:40 PM MDT
Nautical Twilight 6:17 AM MDT 9:16 PM MDT
Astronomical Twilight 5:39 AM MDT 9:54 PM MDT
Moon 12:34 AM MDT (3/31) 10:00 AM MDT (3/31)
Length of Visible Light 13h 47m
Length of Day
12h 46m
Waning Gibbous, 77% of the Moon is Illuminated
Mar 31
Waning Gibbous
Apr 2
Last Quarter
Apr 10
New
Apr 18
First Quarter
Apr 25
Full

Hourly Weather History & Observations

Time (MDT) Temp. Windchill Dew Point Humidity Pressure Visibility Wind Dir Wind Speed Gust Speed Precip Events Conditions
12:52 AM 39.9 °F 36.7 °F 37.9 °F 93% 30.21 in - Variable 4.6 mph - N/A   Unknown
1:52 AM 39.0 °F 36.8 °F 37.0 °F 93% 30.21 in - North 3.5 mph - N/A   Unknown
2:52 AM 37.9 °F 34.4 °F 36.0 °F 93% 30.20 in - NNW 4.6 mph - N/A   Unknown
3:52 AM 37.0 °F 34.5 °F 35.1 °F 93% 30.19 in - Variable 3.5 mph - N/A   Unknown
4:52 AM 36.0 °F 32.1 °F 35.1 °F 97% 30.20 in - North 4.6 mph - N/A   Unknown
5:52 AM 35.1 °F 32.2 °F 34.0 °F 96% 30.21 in - Variable 3.5 mph - N/A   Unknown
6:52 AM 34.0 °F 29.8 °F 33.1 °F 96% 30.22 in - Variable 4.6 mph - N/A   Unknown
7:52 AM 34.0 °F 31.0 °F 33.1 °F 96% 30.24 in - NW 3.5 mph - N/A   Unknown
8:52 AM 34.0 °F 29.8 °F 32.0 °F 92% 30.23 in - NNW 4.6 mph - N/A   Unknown
9:52 AM 41.0 °F - 36.0 °F 82% 30.20 in - Calm Calm - N/A   Unknown
10:52 AM 46.9 °F - 37.0 °F 68% 30.16 in - Calm Calm - N/A   Unknown
11:52 AM 52.0 °F - 37.0 °F 57% 30.12 in - Calm Calm - N/A   Unknown
12:52 PM 59.0 °F - 37.0 °F 44% 30.07 in - Calm Calm - N/A   Unknown
1:52 PM 64.0 °F - 37.0 °F 37% 30.01 in - North 4.6 mph - N/A   Unknown
2:52 PM 68.0 °F - 37.9 °F 33% 29.96 in - South 4.6 mph - N/A   Unknown
3:52 PM 71.1 °F - 39.0 °F 31% 29.93 in - SSE 4.6 mph - N/A   Unknown
4:52 PM 70.0 °F - 39.9 °F 33% 29.91 in - South 5.8 mph - N/A   Unknown
5:52 PM 60.1 °F - 46.0 °F 60% 29.91 in - Calm Calm - N/A   Unknown
6:52 PM 55.0 °F - 45.0 °F 69% 29.91 in - Calm Calm - N/A   Unknown
7:52 PM 50.0 °F - 44.1 °F 80% 29.93 in - Calm Calm - N/A   Unknown
8:52 PM 48.0 °F - 43.0 °F 83% 29.95 in - Calm Calm - N/A   Unknown
9:52 PM 46.9 °F - 41.0 °F 80% 29.96 in - NNW 3.5 mph - N/A   Unknown
10:52 PM 45.0 °F - 41.0 °F 86% 29.97 in - Calm Calm - N/A   Unknown
11:52 PM 43.0 °F 41.3 °F 39.9 °F 89% 29.98 in - NNW 3.5 mph - N/A   Unknown